Flag for U.S.A. Weather past 2 weeks in Key West, Florida, U.S.A.

Now
77 °F

Light rain. Passing clouds.


Feels Like: 78 °F
Forecast: 80 / 86 °F
Wind: 12 mph from Southeast

Location: Key West International Airport

Current Time: Sep 24, 2014 at 1:27:59 AM

Latest Report: Sep 24, 2014 at 12:53 AM


Visibility: 10 mi

Pressure: 29.97 "Hg

Humidity: 85%

Dew point: 72 °F

Location of Key WestLocation

Historic Weather in Key West — Graph

°F

Key West temperature yesterday

Maximum temperature yesterday: 84 °F (at 4:53 PM)
Minimum temperature yesterday: 74 °F (at 6:53 AM)
Average temperature yesterday: 80 °F

Past Weeks' High & Low Weather Summary

 TemperatureHumidityPressure
High90 °F (Sep 17, 4:53 PM)94% (Sep 23, 6:53 AM)30.14 "Hg (Sep 23, 6:53 AM)
Low74 °F (Sep 23, 6:53 AM)59% (Sep 17, 4:53 PM)29.89 "Hg (Sep 20, 3:53 PM)
Average83 °F75%29.99 "Hg
* Reported Sep 8 11:53 PM — Sep 23 11:53 PM, Key West, Weather by CustomWeather, © 2014

Note: Actual official high and low records may vary slightly from our data, if they occured in-between our weather recording intervals... More about our weather records

Advertising

Key West weather history for previous 24 hours

 ConditionsComfort  
Time TempWeatherWind HumidityBarometerVisibility
11:53 PM
Sep 23
77 °FLight rain. Partly cloudy.5 mph90%29.97 "Hg10 mi
10:53 PM80 °FLight rain. Partly cloudy.5 mph90%29.98 "Hg8 mi
9:53 PM80 °FLight rain. Partly cloudy.8 mph79%29.98 "Hg10 mi
8:53 PM82 °FPassing clouds.7 mph79%29.98 "Hg10 mi
7:53 PM82 °FScattered clouds.8 mph79%29.95 "Hg10 mi
6:53 PM83 °FSunny.9 mph74%29.93 "Hg10 mi
5:53 PM83 °FSunny.7 mph74%29.93 "Hg10 mi
4:53 PM84 °FSunny.10 mph72%29.92 "Hg10 mi
3:53 PM83 °FSunny.12 mph74%29.93 "Hg10 mi
2:53 PM82 °FSunny.12 mph77%29.96 "Hg10 mi
1:53 PM83 °FSunny.12 mph72%29.99 "Hg10 mi
12:53 PM81 °FPassing clouds.8 mph77%30.01 "Hg10 mi
11:53 AM78 °FSunny.3 mph87%30.02 "Hg9 mi
10:53 AM76 °FLight rain. Mostly cloudy.3 mph91%30.02 "Hg10 mi
9:53 AM76 °FLight rain. Scattered clouds.7 mph91%30.01 "Hg10 mi
8:53 AM75 °FRain. Fog.5 mph94%30.02 "Hg6 mi
7:53 AM74 °FRain. Overcast.No wind94%29.99 "Hg8 mi
6:53 AM74 °FThundershowers. Fog.No wind94%29.98 "Hg4 mi
5:53 AM76 °FOvercast.20 mph85%29.97 "Hg10 mi
4:53 AM81 °FClear.5 mph85%29.94 "Hg10 mi
3:53 AM81 °FClear.5 mph85%29.93 "Hg10 mi
2:53 AM82 °FClear.7 mph79%29.93 "Hg10 mi
1:53 AM82 °FClear.6 mph82%29.98 "Hg10 mi
Weather by CustomWeather, © 2014

See weather overviewHow to use our weather pages